Regional Weather Roundup
Issued by NWS

Current Version | Previous Version | Text Only | Print | Product List | Glossary On
Versions: 1 2 3 4 5 6 7 8 9 10 11 12 13 14 15 16 17 18 19 20 21 22 23 24 25 26 27 28
000
ASUS46 KPQR 281310
RWROR

OREGON REGIONAL WEATHER ROUNDUP
NATIONAL WEATHER SERVICE PORTLAND OR
600 AM PDT TUE MAR 28 2017

NOTE: "FAIR" INDICATES FEW OR NO CLOUDS BELOW 12,000 FEET WITH
NO SIGNIFICANT WEATHER AND/OR OBSTRUCTIONS TO VISIBILITY.

ORZ001>013-281400-
NORTHWEST OREGON


CITY           SKY/WX    TMP DP  RH WIND       PRES   REMARKS
ASTORIA        LGT RAIN  49  45  86 S17G32    30.22F FOG
NEWPORT        CLOUDY    46  46 100 S14G21    30.35S FOG
PORTLAND       CLOUDY    47  40  76 S8        30.32S
VANCOUVER WA   CLOUDY    48  42  80 VRB7      30.31S
SCAPPOOSE      CLOUDY    47  42  83 S8        30.29F
HILLSBORO      CLOUDY    46  42  86 S12       30.29F
AURORA         CLOUDY    47  40  76 S15       30.33S
MCMINNVILLE    CLOUDY    47  41  80 S12       30.32S
SALEM          CLOUDY    47  40  76 S15       30.32S
CORVALLIS      CLOUDY    45  41  87 S6        30.35S
EUGENE         CLOUDY    45  43  93 SE8       30.37S
$$

ORZ021-028-281400-
SOUTHWEST OREGON


CITY           SKY/WX    TMP DP  RH WIND       PRES   REMARKS
NORTH BEND     CLOUDY    46  45  93 S7        30.40R
BROOKINGS      CLOUDY    44  42  93 NE3       30.39S
ROSEBURG       CLOUDY    44  42  93 CALM      30.38R
SEXTON SUMMIT  CLOUDY    35  29  78 SW5       30.31R WCI  31
MEDFORD        CLOUDY    43  41  93 CALM      30.38R
$$

ORZ014>016-041-281400-
COLUMBIA GORGE


CITY           SKY/WX    TMP DP  RH WIND       PRES   REMARKS
TROUTDALE      CLOUDY    47  42  83 S6        30.32S
THE DALLES     CLOUDY    44  39  82 SE3       30.30S
$$

ORZ029>031-041-044-049-050-061>064-502-503-505>511-281400-
EASTERN OREGON


CITY           SKY/WX    TMP DP  RH WIND       PRES   REMARKS
REDMOND        CLOUDY    36  29  75 S7        30.27S WCI  30
BEND           PTCLDY    37  30  75 S9        30.27S WCI  31
PRINEVILLE     CLOUDY    34  32  93 S6        30.27S WCI  29
KLAMATH FALLS  CLOUDY    32  30  92 CALM      30.30F
LAKEVIEW       PTCLDY    27  23  86 SE6       30.29F WCI  20
HERMISTON      CLOUDY    44  37  76 SW8       30.27R
PENDLETON      CLOUDY    44  33  65 W3        30.26S
JOHN DAY       PTCLDY    32  30  92 CALM      30.27R
MEACHAM        CLOUDY    33  29  85 CALM      30.23S
LA GRANDE      MOCLDY    36  30  80 SE3       30.25F
BAKER CITY     PTCLDY    29  27  92 SE7       30.26S WCI  22
BURNS          PTCLDY    27  24  89 N3        30.27S
ROME             N/A     28  24  85 SE9       30.26S WCI  19
ONTARIO        CLEAR     36  31  82 W8        30.29S WCI  30
$$




USA.gov is the U.S. government's official web portal to all federal, state and local government web resources and services.